Weather History for EGTE - October, 2011

Change the Weather History Date:

Friday, October 14, 2011

  Actual Average Record
Temperature  
Mean Temperature 59 °F -  
Max Temperature 63 °F 55 °F - ()
Min Temperature 55 °F 42 °F - ()
Degree Days  
Heating Degree Days 6    
Growing Degree Days 9 (Base 50)    
Moisture  
Dew Point 53 °F    
Average Humidity 78    
Maximum Humidity 100    
Minimum Humidity 56    
Precipitation  
Precipitation 0.00 in - - ()
Sea Level Pressure  
Sea Level Pressure 30.36 in    
Wind  
Wind Speed 7 mph ()    
Max Wind Speed 15 mph    
Max Gust Speed 20 mph    
Visibility 5.8 miles    
Events      
T = Trace of Precipitation, MM = Missing Value Source: Averaged Metar Reports

Daily Weather History Graph

Daily Weather History Graph

Search for Another Location

Airport or City:

Trip Planner

Search our weather history database for the weather conditions in past years. The results will help you decide how hot, cold, wet, or windy it might be!

Date:

Astronomy

Oct. 14, 2011 Rise Set
Actual Time 7:34 AM BST 6:24 PM BST
Civil Twilight 7:01 AM BST 6:57 PM BST
Nautical Twilight 6:23 AM BST 7:35 PM BST
Astronomical Twilight 5:44 AM BST 8:13 PM BST
Moon 7:05 PM BST (10/14) 10:10 AM BST (10/14)
Length of Visible Light 11h 56m
Length of Day
10h 50m
Waning Gibbous, 95% of the Moon is Illuminated
Oct 14
Waning Gibbous
Oct 20
Last Quarter
Oct 26
New
Nov 2
First Quarter
Nov 10
Full

Hourly Weather History & Observations

Time (BST) Temp. Dew Point Humidity Pressure Visibility Wind Dir Wind Speed Gust Speed Precip Events Conditions
12:20 AM 59.0 °F 57.2 °F 94% 30.39 in 4.3 mi East 5.8 mph - N/A   Scattered Clouds
12:50 AM 58 °F 58 °F 100%  in - Calm Calm - -  
12:50 AM 59.0 °F 57.2 °F 94% 30.39 in 4.3 mi ESE 4.6 mph - N/A   Scattered Clouds
1:20 AM 59.0 °F 57.2 °F 94% 30.39 in 4.3 mi ESE 4.6 mph - N/A   Partly Cloudy
1:50 AM 59.0 °F 57.2 °F 94% 30.39 in 4.3 mi SE 3.5 mph - N/A   Partly Cloudy
2:20 AM 59.0 °F 57.2 °F 94% 30.39 in 3.7 mi Variable 2.3 mph - N/A   Scattered Clouds
2:50 AM 57.2 °F 57.2 °F 100% 30.39 in 3.7 mi Variable 2.3 mph - N/A   Scattered Clouds
3:20 AM 59.0 °F 57.2 °F 94% 30.39 in 3.7 mi Calm Calm - N/A   Partly Cloudy
3:50 AM 60 °F 58 °F 93%  in - Calm Calm - -  
5:20 AM 59.0 °F 57.2 °F 94% 30.36 in 6.2 mi SSE 4.6 mph - N/A   Scattered Clouds
5:50 AM 59.0 °F 57.2 °F 94% 30.36 in 6.2 mi SE 8.1 mph - N/A   Scattered Clouds
6:20 AM 60.8 °F 57.2 °F 88% 30.36 in 6.2 mi SE 8.1 mph - N/A   Scattered Clouds
6:50 AM 59 °F 57 °F 92%  in - Calm Calm - -  
6:50 AM 59.0 °F 57.2 °F 94% 30.36 in 6.2 mi SE 6.9 mph - N/A   Scattered Clouds
7:20 AM 60.8 °F 55.4 °F 82% 30.36 in 5.0 mi ESE 9.2 mph - N/A   Scattered Clouds
7:50 AM 59.0 °F 55.4 °F 88% 30.36 in 6.2 mi ESE 9.2 mph - N/A   Scattered Clouds
8:20 AM 59.0 °F 53.6 °F 82% 30.36 in 6.2 mi ESE 8.1 mph - N/A   Scattered Clouds
8:50 AM 59.0 °F 53.6 °F 82% 30.39 in 6.2 mi ESE 11.5 mph - N/A   Scattered Clouds
9:20 AM 60.8 °F 53.6 °F 77% 30.39 in 6.2 mi ESE 11.5 mph - N/A   Scattered Clouds
9:50 AM 60 °F 55 °F 78%  in - Calm Calm - -  
9:50 AM 60.8 °F 53.6 °F 77% 30.39 in 6.2 mi ESE 10.4 mph - N/A   Scattered Clouds
10:20 AM 60.8 °F 55.4 °F 82% 30.39 in 6.2 mi ESE 9.2 mph - N/A   Scattered Clouds
10:50 AM 60.8 °F 53.6 °F 77% 30.39 in 6.2 mi Variable 8.1 mph 19.6 mph N/A   Scattered Clouds
11:20 AM 62.6 °F 53.6 °F 72% 30.39 in 6.2 mi ESE 15.0 mph - N/A   Scattered Clouds
11:50 AM 64.4 °F 53.6 °F 68% 30.39 in 6.2 mi SE 10.4 mph - N/A   Scattered Clouds
12:20 PM 62.6 °F 51.8 °F 68% 30.39 in 6.2 mi ESE 9.2 mph - N/A   Scattered Clouds
12:50 PM 63 °F 51 °F 56%  in - Calm Calm - -  
12:50 PM 60.8 °F 51.8 °F 72% 30.39 in 6.2 mi SE 10.4 mph - N/A   Scattered Clouds
1:20 PM 60.8 °F 50.0 °F 68% 30.39 in 6.2 mi ESE 11.5 mph - N/A   Scattered Clouds
1:50 PM 62.6 °F 50.0 °F 63% 30.36 in 6.2 mi ESE 11.5 mph - N/A   Scattered Clouds
2:20 PM 62.6 °F 51.8 °F 68% 30.36 in 6.2 mi ESE 10.4 mph - N/A   Scattered Clouds
2:50 PM 60.8 °F 51.8 °F 72% 30.36 in 6.2 mi SE 11.5 mph - N/A   Scattered Clouds
3:20 PM 62.6 °F 51.8 °F 68% 30.36 in 6.2 mi SE 11.5 mph - N/A   Scattered Clouds
3:50 PM 60 °F 49 °F 58%  in - Calm Calm - -  
3:50 PM 60.8 °F 50.0 °F 68% 30.36 in 6.2 mi ESE 13.8 mph - N/A   Scattered Clouds
4:20 PM 60.8 °F 50.0 °F 68% 30.33 in 6.2 mi ESE 12.7 mph - N/A   Scattered Clouds
4:50 PM 60.8 °F 48.2 °F 63% 30.33 in 6.2 mi ESE 15.0 mph - N/A   Scattered Clouds
5:20 PM 60.8 °F 48.2 °F 63% 30.33 in 6.2 mi ESE 12.7 mph - N/A   Scattered Clouds
5:50 PM 59.0 °F 48.2 °F 67% 30.33 in 6.2 mi ESE 6.9 mph - N/A   Scattered Clouds
6:20 PM 59.0 °F 50.0 °F 72% 30.33 in 6.2 mi ESE 11.5 mph - N/A   Scattered Clouds
6:50 PM 56 °F 49 °F 71%  in - Calm Calm - -  
6:50 PM 59.0 °F 48.2 °F 67% 30.33 in 6.2 mi East 9.2 mph - N/A   Scattered Clouds
7:20 PM 57.2 °F 50.0 °F 77% 30.33 in 6.2 mi East 6.9 mph - N/A   Scattered Clouds
7:50 PM 57.2 °F 48.2 °F 72% 30.33 in 6.2 mi East 6.9 mph - N/A   Mostly Cloudy
8:20 PM 57.2 °F 48.2 °F 72% 30.33 in 6.2 mi East 9.2 mph - N/A   Mostly Cloudy
8:50 PM 57.2 °F 48.2 °F 72% 30.30 in 6.2 mi East 8.1 mph - N/A   Mostly Cloudy
9:20 PM 57.2 °F 48.2 °F 72% 30.30 in 6.2 mi East 6.9 mph - N/A   Mostly Cloudy
9:50 PM 55.4 °F 48.2 °F 77% 30.30 in 6.2 mi ENE 5.8 mph - N/A   Mostly Cloudy
10:20 PM 57.2 °F 48.2 °F 72% 30.30 in 6.2 mi East 9.2 mph - N/A   Mostly Cloudy
10:50 PM 55.4 °F 48.2 °F 77% 30.30 in 6.2 mi East 8.1 mph - N/A   Mostly Cloudy
11:20 PM 55.4 °F 48.2 °F 77% 30.30 in 6.2 mi East 6.9 mph - N/A   Mostly Cloudy
11:50 PM 57.2 °F 46.4 °F 67% 30.30 in 6.2 mi ENE 5.8 mph - N/A   Mostly Cloudy